ONEWEB-0013, 45131

Orbit data source: Space-Track

ONEWEB-0013, 45131 is a payload satellite owned by One Web (UK) in LEO that was launched on Thu, 06 Feb 2020 UTC via a SOYUZ-2-1B launch vehicle from the Tyuratam Missile And Space Complex (TTMTR). Payload-class satellites include a variety of spacecraft equipped with specific instruments for various scientific and technological missions. These include communications satellites like Starlink; space stations such as the ISS; scientific satellites like the Hubble; Earth observation satellites from companies like Planet Labs, Umbra, and HawkEye 360; GPS; miniature CubeSats for education and research; and military/defense satellites.

Loading next visibility...
Identifier
45131, 2020-008A
Orbit
LEO
Last TLE update
20 hours ago
Origin
Manufacturer
One Web
Mission
Operational Commercial Communications
Bus & Motor
ARROW, Unknown motor
Mass
148 kg wet, ~140 kg dry
Launch date (UTC)
2020-02-06 (5 years ago)
Launch vehicle
SOYUZ-2-1B
Launch site
Tyuratam Missile And Space Complex (TTMTR)
Object type
Payload
Rocket body
Debris
Shape & HBR
Trap Box + 2 Pan, 5 m
Radar Cross Section
2.957 m², Large (>1 m²)

Expand to show TLE details & history

TLE from 20 hours ago
0 ONEWEB-0013
1 45131U 20008A   25128.56911022 -.00000423  00000-0 -12655-2 0  9990
2 45131  87.8534 134.4598 0002284  64.7582 295.3782 13.09418851253874
Epoch: 2025-05-08T13:39Z
Definitive object data (Epoch: 2025-05-08T13:39:31.122Z)
Latitude
0.00002°
Longitude
62.9424°
Altitude
1,227.55 km
Speed
7.241 km/s
True Right ascension
08h 57m 50s
True Declination
0° 00' 00"
Sunlit
Object was in daylight at TLE epoch
Visualization TLE readout
Latitude
-74.09669°
Longitude
-109.70115°
Altitude
1,254.289 km
Speed
7.227 km/s
Apparent Right ascension
03h 45m 47s
Apparent Declination
-69° 29' 12"
Sunlit
Object is in daylight
Visualization observer readout
Local Sidereal Time
17:26:48
Azimuth
163.811° S
Elevation
-57.571°
Doppler factor
1
Orbital elements
Apogee altitude
1,224.265 km
Perigee altitude
1,220.793 km
Semi-major axis
7,600.666 km
Eccentricity
0.0002284
Inclination
87.8534°
RAAN
134.4598°
Arg. of periapsis
64.7582°
True anomaly
295.35455°
Mean anomaly
295.3782°
Eccentric anomaly
295.36638°
Mean motion
3.27541 °/min
BSTAR
-0.0012655
Orbital period
109.91 mins
Loading maneuver chart data...
Loading SW <> Apogee altitude chart data...
Loading historical data...
Loading historical data...
Loading historical data...
Loading historical data...
Loading historical data...
Loading historical data...
Loading historical data...

ONEWEB-0013 Visibility forecast

Observer location: undefined°, undefined°

Span
Click to sort rows by Start time (UTC) header in descending order
Start Az.
Max El. time (UTC)
Max El. Az.
Max El.
End time (UTC)
End Az.
13 mins2025-05-09 12:16:29.974Z5.659° NNE2025-05-09 12:22:29.974Z77.784° E43.158°2025-05-09 12:29:29.974Z170.608° S
8 mins2025-05-09 14:08:29.974Z319.053° NNW2025-05-09 14:11:29.974Z290.739° WNW19.373°2025-05-09 14:16:29.974Z244.828° WSW
13 mins2025-05-10 00:36:29.974Z171.781° S2025-05-10 00:42:29.974Z74.732° E44.402°2025-05-10 00:49:29.974Z3.495° NNE
7 mins2025-05-10 02:30:29.974Z260.76° W2025-05-10 02:33:29.974Z289.217° WNW17.139°2025-05-10 02:37:29.974Z324.029° NNW
|